[[{"header":{"parameterUnit":"m.s-1","parameterCategory":1,"la1":30.2991,"la2":30.254,"lo1":-89.0895,"lo2":-89.0444,"dy":0.0017,"dx":0.0017,"nx":28,"ny":28,"refTime":"2025-04-19T21:00:00:Z","depth":0,"parameterNumber":2,"parameterNumberName":"U-component_of_WINDS"},"data":[0,0,0,0,0,0,0,0,0,0,0,0,0,0,0,0,0,0,0,0,0,0,0,0,0,0,0,0,0,0,0,0,0,0,0,0,0,0,0,0,0,0,0,0,0,0,0,0,0,0,0,0,0,0,0,0,0,0,-5.4235,-5.4235,0,-5.4283,-5.4284,-5.4284,-5.4198,-5.4195,-5.4192,-5.4189,-5.4237,-5.424,-5.4244,0,0,0,0,0,0,0,0,0,0,0,0,0,-5.4068,-5.4071,-5.4235,-5.4235,-5.4236,-5.4283,-5.4284,-5.4284,-5.4198,-5.4195,-5.4191,-5.4188,-5.4235,-5.424,-5.4245,0,0,0,0,0,0,0,0,0,0,0,0,0,-5.4131,-5.4072,-5.4235,-5.4199,-5.4196,-5.4283,-5.4284,-5.4284,-5.4199,-5.4195,-5.419,-5.4186,-5.4234,-5.424,-5.4245,-5.4369,0,0,-5.4264,-5.4266,0,0,0,0,0,0,0,0,-5.4127,-5.4137,-5.4203,-5.4201,-5.4198,-5.423,-5.4242,-5.4313,-5.42,-5.4198,-5.4189,-5.4184,-5.4238,-5.4243,-5.4262,-5.4371,-5.4373,-5.4264,-5.4268,-5.427,-5.4272,0,0,0,0,0,0,0,-5.4123,-5.4134,-5.4254,-5.4204,-5.4201,-5.418,-5.4184,-5.4255,-5.4241,-5.4198,-5.4191,-5.4198,-5.4236,-5.4256,-5.4262,-5.4374,-5.4264,-5.4269,-5.4273,-5.4275,-5.4588,-5.4593,0,0,0,0,0,0,-5.4123,-5.4131,-5.4252,-5.4255,-5.4151,-5.4187,-5.4191,-5.4224,-5.424,-5.4239,-5.4202,-5.4194,-5.4248,-5.4255,-5.4263,-5.4409,-5.427,-5.4276,-5.4279,-5.4584,-5.4589,-5.4594,0,0,0,0,0,0,-5.412,-5.4135,-5.425,-5.4192,-5.4205,-5.4194,-5.4232,-5.4227,-5.4248,-5.4244,-5.4241,-5.4226,-5.4245,-5.4255,-5.4344,-5.4409,-5.4278,-5.4284,-5.4578,-5.4585,-5.4592,-5.4701,0,0,0,0,0,0,-5.4115,-5.4134,-5.4181,-5.4193,-5.4208,-5.433,-5.4236,-5.4231,-5.4258,-5.4249,-5.4265,-5.4264,-5.4242,-5.4335,-5.435,-5.4415,-5.4288,-5.4572,-5.4581,-5.459,-5.4691,-5.4711,-5.4728,0,0,0,0,0,-5.411,-5.4209,-5.4183,-5.4198,-5.4266,-5.4334,-5.4342,-5.4316,-5.4264,-5.4311,-5.4309,-5.4263,-5.4401,-5.4345,-5.436,-5.4429,-5.4568,-5.4579,-5.4589,-5.4683,-5.4707,-5.4727,0,0,0,0,0,0,-5.4202,-5.421,-5.4181,-5.4288,-5.4311,-5.4319,-5.4377,-5.4342,-5.438,-5.4369,-5.4335,-5.434,-5.4435,-5.4441,-5.4379,-5.455,-5.4475,-5.449,-5.4542,-5.4564,-5.4582,-5.4578,-5.4293,0,0,0,0,0,-5.4236,-5.429,-5.4294,-5.4387,-5.44,-5.4387,-5.4416,-5.4394,-5.4416,-5.4425,-5.443,-5.4453,-5.4501,-5.4534,-5.4578,-5.4693,-5.4695,-5.4748,-5.4766,-5.4781,-5.4793,-5.4855,-5.4878,-5.463,-5.4629,-5.4629,0,0,-5.4304,-5.4315,-5.4351,-5.4406,-5.4421,-5.4478,-5.4396,-5.4459,-5.4501,-5.4435,-5.4518,-5.4523,-5.4547,-5.465,-5.4695,-5.4657,-5.4863,-5.4795,-5.4807,-5.481,-5.4868,-5.4892,-5.4913,-5.4637,-5.4636,-5.4634,0,0,-5.4457,-5.4471,-5.455,-5.4568,-5.4594,-5.4585,-5.4604,-5.4619,-5.4619,-5.4704,-5.4655,-5.4705,-5.4789,-5.4808,-5.4829,-5.4994,-5.4953,-5.5009,-5.5103,-5.5163,-5.5183,-5.52,-5.5258,-5.5279,-5.5022,-5.5022,-5.5022,0,-5.4538,-5.4622,-5.4595,-5.4663,-5.4689,-5.4634,-5.4714,-5.4732,-5.4771,-5.479,-5.4748,-5.4854,-5.4866,-5.4972,-5.5013,-5.5032,-5.5053,-5.5005,-5.5183,-5.5199,-5.5215,-5.527,-5.5292,-5.5029,-5.5028,-5.5027,-5.5026,0,-5.472,-5.478,-5.4841,-5.4881,-5.4914,-5.4988,-5.4972,-5.5009,-5.4986,-5.4982,-5.5069,-5.5083,-5.5129,-5.5153,-5.5131,-5.5258,-5.5233,-5.5188,-5.5112,-5.5246,-5.5297,-5.5317,-5.5038,-5.5036,-5.5034,-5.5032,0,0,-5.4929,-5.4956,-5.4978,-5.4996,-5.5022,-5.5067,-5.514,-5.5186,-5.5218,-5.5248,-5.5307,-5.5381,-5.534,-5.5364,-5.5343,-5.5397,-5.5526,-5.5345,-5.5345,-5.5377,-5.5666,-5.5699,-5.5724,-5.5501,-5.5505,-5.5508,-5.5664,0,-5.508,-5.5204,-5.5184,-5.5304,-5.5359,-5.5309,-5.5372,-5.5395,-5.5394,-5.5441,-5.5439,-5.5492,-5.5434,-5.5448,-5.55,-5.55,-5.5584,-5.5489,-5.5555,-5.5557,-5.5548,-5.575,-5.5784,-5.593,-5.5684,-5.5687,-5.569,0,-5.5272,-5.531,-5.5436,-5.5454,-5.5477,-5.5533,-5.5575,-5.5621,-5.5646,-5.5642,-5.5671,-5.5641,-5.5713,-5.5639,-5.5738,-5.5674,-5.5701,-5.5705,-5.5711,-5.5713,-5.563,-5.5757,-5.5976,-5.5998,-5.5721,-5.5718,-5.5716,0,-5.541,-5.5493,-5.5579,-5.5596,-5.562,-5.5661,-5.5673,-5.5695,-5.5725,-5.5762,-5.5781,-5.5826,-5.585,-5.5886,-5.587,-5.5818,-5.5972,-5.5896,-5.597,-5.597,-5.6002,-5.6,-5.6227,-5.6023,-5.6023,-5.6023,-5.6022,0,-5.5579,-5.5658,-5.5641,-5.5694,-5.5781,-5.5758,-5.5845,-5.5851,-5.5872,-5.5925,-5.5885,-5.5936,-5.5913,-5.5962,-5.5951,-5.6034,-5.6046,-5.6044,-5.6039,-5.6046,-5.6046,-5.6061,-5.6049,-5.6028,-5.6027,-5.6026,-5.6025,0,-5.5746,-5.5739,-5.5829,-5.5846,-5.5852,-5.5916,-5.593,-5.5979,-5.5977,-5.6045,-5.606,-5.6056,-5.6112,-5.6101,-5.6163,-5.6155,-5.626,-5.6244,-5.6251,-5.6246,-5.632,-5.6313,-5.6563,-5.6594,-5.6372,-5.6374,-5.6376,0,-5.5853,-5.5913,-5.5937,-5.597,-5.5986,-5.604,-5.6071,-5.6052,-5.6086,-5.6121,-5.6167,-5.622,-5.6261,-5.6354,-5.6356,-5.6404,-5.6387,-5.6472,-5.6394,-5.6399,-5.6387,-5.6382,-5.6388,-5.6486,-5.6489,-5.6491,-5.6493,0,-5.6044,-5.6038,-5.6084,-5.6131,-5.617,-5.6205,-5.6236,-5.6266,-5.6249,-5.629,-5.6348,-5.638,-5.6444,-5.6498,-5.6543,-5.6554,-5.6521,-5.6518,-5.6537,-5.6543,-5.6544,-5.6543,-5.6291,-5.6511,-5.6509,-5.6508,-5.6507,-5.6506,-5.6183,-5.6234,-5.6259,-5.6313,-5.6336,-5.6367,-5.6414,-5.6419,-5.6467,-5.6518,-5.6505,-5.6571,-5.6597,-5.6653,-5.6671,-5.6723,-5.6691,-5.6719,-5.6726,-5.6732,-5.6741,-5.6539,-5.6731,-5.673,-5.673,-5.6729,-5.6729,0,-5.637,-5.6385,-5.6435,-5.6481,-5.6524,-5.6491,-5.6525,-5.6562,-5.6621,-5.6649,-5.6691,-5.6758,-5.6811,-5.6819,-5.6869,-5.6908,-5.6894,-5.6922,-5.6917,-5.6921,-5.6767,-5.6744,-5.6932,-5.6932,-5.6932,-5.6932,-5.6932,-5.6932,-5.6472,-5.6557,-5.6555,-5.6651,-5.6665,-5.673,-5.6752,-5.6781,-5.6803,-5.688,-5.6924,-5.6929,-5.6949,-5.7001,-5.7048,-5.7049,-5.7068,-5.7102,-5.7097,-5.6952,-5.6932,-5.6912,-5.6891,-5.7107,-5.7107,-5.7246,-5.7247,-5.7248]},{"header":{"parameterUnit":"m.s-1","parameterCategory":1,"la1":30.2991,"la2":30.254,"lo1":-89.0895,"lo2":-89.0444,"dy":0.0017,"dx":0.0017,"nx":28,"ny":28,"refTime":"2025-04-19T21:00:00:Z","depth":0,"parameterNumber":3,"parameterNumberName":"V-component_of_WINDS"},"data":[0,0,0,0,0,0,0,0,0,0,0,0,0,0,0,0,0,0,0,0,0,0,0,0,0,0,0,0,0,0,0,0,0,0,0,0,0,0,0,0,0,0,0,0,0,0,0,0,0,0,0,0,0,0,0,0,0,0,2.8755,2.8755,0,2.8777,2.8777,2.8777,2.8748,2.8747,2.8746,2.8745,2.8765,2.8767,2.8768,0,0,0,0,0,0,0,0,0,0,0,0,0,2.8688,2.8689,2.8754,2.8755,2.8755,2.8776,2.8777,2.8777,2.8748,2.8747,2.8746,2.8745,2.8765,2.8767,2.8768,0,0,0,0,0,0,0,0,0,0,0,0,0,2.8714,2.869,2.8754,2.8743,2.8743,2.8776,2.8777,2.8777,2.8749,2.8747,2.8746,2.8744,2.8764,2.8766,2.8769,2.8814,0,0,2.8776,2.8777,0,0,0,0,0,0,0,0,2.8713,2.8716,2.8745,2.8744,2.8743,2.8758,2.8761,2.8789,2.8749,2.8746,2.8745,2.8743,2.8764,2.8766,2.8774,2.8815,2.8815,2.8776,2.8777,2.8778,2.8779,0,0,0,0,0,0,0,2.8711,2.8715,2.8763,2.8745,2.8744,2.8737,2.8739,2.8766,2.8763,2.8746,2.8744,2.8748,2.8763,2.8772,2.8774,2.8816,2.8776,2.8778,2.8779,2.878,2.8898,2.8899,0,0,0,0,0,0,2.871,2.8714,2.8762,2.8764,2.8724,2.874,2.8742,2.8755,2.8763,2.8763,2.8749,2.8746,2.8768,2.8771,2.8775,2.8829,2.8778,2.878,2.8781,2.8896,2.8898,2.89,0,0,0,0,0,0,2.8709,2.8715,2.8761,2.8738,2.8744,2.8743,2.8757,2.8756,2.8764,2.8765,2.8764,2.8758,2.8767,2.8771,2.8805,2.883,2.8781,2.8783,2.8894,2.8897,2.8899,2.8938,0,0,0,0,0,0,2.8707,2.8715,2.8731,2.8739,2.8745,2.8792,2.8759,2.8758,2.8769,2.8765,2.8773,2.8773,2.8766,2.8802,2.8807,2.8832,2.8785,2.8892,2.8895,2.8898,2.8935,2.8942,2.8948,0,0,0,0,0,2.8705,2.874,2.8732,2.8738,2.8766,2.8793,2.8796,2.8789,2.8771,2.8788,2.8789,2.8773,2.8826,2.8805,2.8811,2.8837,2.889,2.8894,2.8898,2.8932,2.8941,2.8948,0,0,0,0,0,0,2.8734,2.8741,2.8732,2.8771,2.8782,2.8788,2.8809,2.8798,2.8813,2.8809,2.8799,2.8801,2.8838,2.8841,2.8817,2.8882,2.8855,2.886,2.8879,2.8887,2.8894,2.8892,2.8787,0,0,0,0,0,2.8745,2.8767,2.8772,2.8805,2.8812,2.881,2.8821,2.8815,2.8825,2.8829,2.8832,2.8843,2.8862,2.8875,2.8892,2.8936,2.8938,2.8956,2.8963,2.8969,2.8973,2.8998,2.9007,2.8913,2.8913,2.8913,0,0,2.8767,2.8774,2.8788,2.8812,2.8819,2.8842,2.8813,2.8838,2.8855,2.8833,2.8865,2.8868,2.8879,2.8919,2.8936,2.8922,2.9,2.8974,2.8978,2.898,2.9004,2.9012,2.902,2.8916,2.8915,2.8915,0,0,2.882,2.8827,2.8858,2.8867,2.888,2.8879,2.8886,2.8895,2.8897,2.893,2.8914,2.8934,2.8967,2.8977,2.8986,2.9047,2.9033,2.9053,2.9087,2.9112,2.912,2.9126,2.9149,2.9157,2.9058,2.9058,2.9058,0,2.8846,2.8881,2.8874,2.8901,2.8913,2.8896,2.8927,2.8936,2.8953,2.8962,2.8947,2.899,2.8996,2.9038,2.9054,2.9061,2.907,2.9051,2.9119,2.9126,2.9132,2.9154,2.9162,2.906,2.906,2.906,2.9059,0,2.8913,2.8938,2.8961,2.898,2.8994,2.9023,2.9022,2.9037,2.9031,2.9032,2.9067,2.9074,2.9094,2.9104,2.9096,2.9146,2.9137,2.9121,2.9093,2.9143,2.9164,2.9172,2.9064,2.9063,2.9062,2.9061,0,0,2.8982,2.9001,2.9009,2.9019,2.9034,2.9053,2.9082,2.9103,2.9117,2.9131,2.9155,2.9185,2.9172,2.9182,2.9176,2.9198,2.9248,2.9179,2.9179,2.9192,2.9305,2.9317,2.9327,2.924,2.9241,2.9242,2.9304,0,2.9036,2.9087,2.9084,2.9132,2.9156,2.9142,2.9168,2.918,2.9182,2.9203,2.9205,2.9228,2.9207,2.9213,2.9234,2.9238,2.927,2.9233,2.9263,2.9264,2.926,2.9337,2.9349,2.9407,2.9312,2.9313,2.9314,0,2.9105,2.9124,2.9175,2.9189,2.9199,2.9222,2.9243,2.9263,2.9277,2.9277,2.9291,2.9283,2.9313,2.9286,2.9328,2.9302,2.9315,2.9318,2.9321,2.9323,2.9292,2.9342,2.9425,2.9434,2.9326,2.9325,2.9324,0,2.9152,2.9189,2.9226,2.9235,2.9252,2.9269,2.9277,2.929,2.9304,2.9322,2.9331,2.9352,2.9364,2.938,2.9378,2.9358,2.9422,2.9393,2.9423,2.9423,2.9436,2.9436,2.9523,2.9444,2.9444,2.9444,2.9444,0,2.9212,2.9244,2.9247,2.927,2.9306,2.9303,2.9339,2.9345,2.9357,2.9381,2.9369,2.9392,2.9388,2.941,2.9409,2.9445,2.945,2.9451,2.945,2.9452,2.9452,2.946,2.9456,2.9446,2.9446,2.9445,2.9445,0,2.927,2.9273,2.9312,2.9326,2.9331,2.9357,2.937,2.9391,2.9394,2.9424,2.9431,2.9436,2.9462,2.9462,2.9491,2.9491,2.9535,2.9529,2.9531,2.953,2.956,2.9557,2.9655,2.9669,2.9581,2.9582,2.9582,0,2.9308,2.9333,2.9351,2.9367,2.9377,2.9402,2.9418,2.9416,2.9432,2.9453,2.9472,2.9498,2.9518,2.9561,2.9567,2.959,2.9585,2.9618,2.9588,2.959,2.9586,2.9585,2.9588,2.9623,2.9624,2.9625,2.9626,0,2.9376,2.9378,2.9401,2.9425,2.9445,2.9463,2.9481,2.9494,2.9495,2.9514,2.9542,2.9558,2.959,2.9616,2.9639,2.9647,2.9637,2.9636,2.9644,2.9646,2.9646,2.9647,2.9547,2.9633,2.9632,2.9632,2.9631,2.9631,2.9426,2.9448,2.9466,2.9493,2.9507,2.9524,2.9546,2.9553,2.9577,2.9604,2.9602,2.9633,2.9649,2.9679,2.969,2.9714,2.9702,2.9714,2.9717,2.972,2.9724,2.9643,2.9718,2.9718,2.9718,2.9717,2.9717,0,2.9494,2.9506,2.9531,2.9557,2.9579,2.957,2.959,2.9608,2.9636,2.9653,2.9675,2.9708,2.9734,2.9743,2.9768,2.9786,2.9783,2.9793,2.9792,2.9794,2.9732,2.9723,2.9796,2.9796,2.9796,2.9796,2.9796,2.9796,2.9532,2.9571,2.9575,2.9621,2.9633,2.9665,2.9677,2.9694,2.9707,2.9745,2.9768,2.9774,2.9788,2.9815,2.9839,2.9841,2.9851,2.9864,2.9864,2.9806,2.9798,2.9791,2.9782,2.9866,2.9866,2.9924,2.9925,2.9925]}]]